This demonstration page uses our WeatherBlox Daily Observations layout. Learn more.

Hourly Observations for October 16, 2019

Temp ( °F °C ) Dew Point ( °F °C ) Humidity (%) Winds ( mph kmh ) Pressure ( in mb ) Visibility ( mi km ) Precip ( " mm )
12:15 am 00:15 Clear 34 1.3 29 -1.5 82 82 NW 5 7 30.36 1028 10 16.09344 0 0
12:35 am 00:35 Clear 34 1.3 29 -1.5 82 82 NNW 7 11 30.36 1028 10 16.09344 0 0
12:55 am 00:55 Clear 35 1.9 30 -1.2 80 80 NNW 8 13 30.33 1027 10 16.09344 0 0
1:15 am 01:15 Clear 34 1.2 29 -1.5 82 82 NNW 7 11 30.33 1027 10 16.09344 0 0
1:35 am 01:35 Clear 33 0.8 29 -1.5 85 85 NNW 7 11 30.33 1027 10 16.09344 0 0
1:55 am 01:55 Clear 34 0.9 29 -1.4 85 85 NNW 8 13 30.33 1027 10 16.09344 0 0
2:15 am 02:15 Clear 33 0.5 29 -1.5 87 87 NW 6 9 30.36 1028 10 16.09344 0 0
2:35 am 02:35 Clear 32 0 29 -1.6 89 89 NNW 7 11 30.33 1027 10 16.09344 0 0
2:55 am 02:55 Clear 32 0.1 29 -1.5 89 89 NNW 6 9 30.33 1027 10 16.09344 0 0
3:15 am 03:15 Clear 32 0 29 -1.5 90 90 NW 6 9 30.33 1027 10 16.09344 0 0
3:35 am 03:35 Clear 31 -0.3 29 -1.7 90 90 N 5 7 30.33 1027 10 16.09344 0 0
3:55 am 03:55 Clear 31 -0.5 28 -2 90 90 Calm 30.33 1027 10 16.09344 0 0
4:15 am 04:15 Clear 31 -0.7 28 -2 91 91 NW 3 6 30.33 1027 10 16.09344 0 0
4:35 am 04:35 Clear 31 -0.6 29 -1.8 92 92 WSW 7 11 30.33 1027 10 16.09344 0 0
4:55 am 04:55 Clear 31 -0.5 29 -1.7 92 92 WSW 5 7 30.33 1027 10 16.09344 0 0
5:15 am 05:15 Clear 32 -0.1 29 -1.5 90 90 W 5 7 30.33 1027 10 16.09344 0 0
5:35 am 05:35 Clear 32 0 29 -1.4 90 90 W 5 7 30.33 1027 10 16.09344 0 0
5:55 am 05:55 Clear 32 0 29 -1.5 90 90 W 5 7 30.33 1027 10 16.09344 0 0
6:15 am 06:15 Clear 32 -0.1 29 -1.7 89 89 Calm 30.33 1027 10 16.09344 0 0
6:35 am 06:35 Clear 29 -1.4 28 -2.5 92 92 Calm 30.33 1027 10 16.09344 0 0
6:55 am 06:55 Clear 29 -1.7 28 -2.5 94 94 Calm 30.36 1028 10 16.09344 0 0
7:15 am 07:15 Clear 28 -2.1 27 -2.9 94 94 W 5 7 30.36 1028 10 16.09344 0 0
7:35 am 07:35 Clear 30 -1 29 -1.9 94 94 W 5 7 30.33 1027 10 16.09344 0 0
7:55 am 07:55 Sunny 30 -1.2 28 -2.2 93 93 W 3 6 30.33 1027 10 16.09344 0 0
8:15 am 08:15 Sunny 29 -1.4 28 -2.5 92 92 Calm 30.3 1026 10 16.09344 0 0
8:35 am 08:35 Sunny 30 -0.9 29 -1.7 94 94 Calm 30.3 1026 10 16.09344 0 0
8:55 am 08:55 Sunny 34 0.9 31 -0.3 92 92 Calm 30.3 1026 10 16.09344 0 0
9:15 am 09:15 Sunny 37 2.9 33 0.5 84 84 Calm 30.3 1026 10 16.09344 0 0
9:35 am 09:35 Sunny 40 4.7 35 1.4 79 79 Calm 30.3 1026 10 16.09344 0 0
9:55 am 09:55 Sunny 43 6.2 34 1.1 70 70 SW 5 7 30.27 1025 10 16.09344 0 0
10:15 am 10:15 Sunny 45 7 34 1.3 67 67 SW 6 9 30.27 1025 10 16.09344 0 0
10:35 am 10:35 Sunny 46 7.7 34 1.1 63 63 SSW 6 9 30.21 1023 10 16.09344 0 0
10:55 am 10:55 Sunny 47 8.4 34 1.1 60 60 SSW 7 11 30.21 1023 10 16.09344 0 0
11:15 am 11:15 Sunny 48 8.9 33 0.8 57 57 S 6 9 30.21 1023 10 16.09344 0 0
11:35 am 11:35 Sunny 49 9.2 34 1 57 57 S 7 11 30.21 1023 10 16.09344 0 0
11:55 am 11:55 Sunny 51 10.4 34 1.1 53 53 S 6 9 30.18 1022 10 16.09344 0 0
12:15 pm 12:15 Sunny 51 10.6 33 0.8 51 51 S 5 7 30.18 1022 10 16.09344 0 0
12:35 pm 12:35 Sunny 52 11 33 0.7 49 49 SSE 6 9 30.12 1020 10 16.09344 0 0
12:55 pm 12:55 Sunny 53 11.8 33 0.7 47 47 SSE 7 11 30.12 1020 10 16.09344 0 0
1:15 pm 13:15 Sunny 55 12.5 33 0.6 44 44 S 9 15 30.12 1020 10 16.09344 0 0
1:35 pm 13:35 Sunny 55 12.8 33 0.7 44 44 S 10 17 30.12 1020 10 16.09344 0 0
1:55 pm 13:55 Sunny 56 13.3 34 0.9 43 43 S 9 15 30.12 1020 10 16.09344 0 0
2:15 pm 14:15 Sunny 57 13.9 34 1 42 42 S 13 20 30.06 1018 10 16.09344 0 0
2:35 pm 14:35 Sunny 57 14 34 0.9 41 41 S 10 17 30.06 1018 10 16.09344 0 0
2:55 pm 14:55 Sunny 59 15 34 1.1 39 39 S 12 19 30.06 1018 10 16.09344 0 0
3:15 pm 15:15 Sunny 59 15.2 34 1.2 39 39 SSW 13 20 30.06 1018 10 16.09344 0 0
3:35 pm 15:35 Sunny 60 15.8 35 1.4 38 38 SSW 13 20 30.03 1017 10 16.09344 0 0
3:55 pm 15:55 Sunny 61 16 34 1.2 37 37 S 14 22 30.03 1017 10 16.09344 0 0
4:15 pm 16:15 Sunny 62 16.6 35 1.4 36 36 S 13 20 30 1016 10 16.09344 0 0
4:35 pm 16:35 Sunny 62 16.9 35 1.5 36 36 S 13 20 30 1016 10 16.09344 0 0
4:55 pm 16:55 Sunny 62 16.7 35 1.5 36 36 S 13 20 29.97 1015 10 16.09344 0 0
5:15 pm 17:15 Sunny 62 16.8 34 1.3 35 35 SSW 12 19 29.97 1015 10 16.09344 0 0
5:35 pm 17:35 Sunny 62 16.4 35 1.4 37 37 S 9 15 29.97 1015 10 16.09344 0 0
5:55 pm 17:55 Sunny 62 16.6 35 1.4 36 36 S 10 17 29.97 1015 10 16.09344 0 0
6:15 pm 18:15 Sunny 60 15.8 35 1.6 38 38 S 7 11 29.97 1015 10 16.09344 0 0
6:35 pm 18:35 Sunny 59 14.8 35 1.6 41 41 S 6 9 29.97 1015 10 16.09344 0 0
6:55 pm 18:55 Sunny 56 13.1 35 1.5 46 46 SSE 5 7 29.97 1015 10 16.09344 0 0
7:15 pm 19:15 Clear 54 12.3 35 1.8 49 49 SSE 7 11 30 1016 10 16.09344 0 0
7:35 pm 19:35 Clear 53 11.9 35 1.7 50 50 SSE 6 9 30 1016 10 16.09344 0 0
7:55 pm 19:55 Clear 52 11.3 35 1.7 52 52 SSE 6 9 30 1016 10 16.09344 0 0
8:15 pm 20:15 Clear 51 10.4 35 1.6 55 55 SSE 7 11 29.97 1015 10 16.09344 0 0
8:35 pm 20:35 Clear 49 9.5 35 1.5 58 58 SSE 7 11 29.97 1015 10 16.09344 0 0
8:55 pm 20:55 Clear 49 9.5 35 1.6 58 58 SSE 6 9 29.97 1015 10 16.09344 0 0
9:15 pm 21:15 Clear 47 8.5 35 1.5 62 62 SSE 6 9 30.03 1017 10 16.09344 0 0
9:35 pm 21:35 Clear 46 7.6 34 1.2 64 64 SSE 6 9 30 1016 10 16.09344 0 0
9:55 pm 21:55 Clear 46 7.6 35 1.5 66 66 SSE 3 6 30 1016 10 16.09344 0 0
10:15 pm 22:15 Clear 47 8.5 35 1.9 64 64 S 6 9 30 1016 10 16.09344 0 0
10:35 pm 22:35 Clear 47 8.4 36 2 64 64 SSE 6 9 30 1016 10 16.09344 0 0
10:55 pm 22:55 Clear 46 7.7 35 1.8 67 67 SSE 5 7 30 1016 10 16.09344 0 0
11:15 pm 23:15 Clear 45 7.2 35 1.6 68 68 SSE 5 7 30 1016 10 16.09344 0 0
11:35 pm 23:35 Clear 45 7.1 35 1.6 68 68 SSE 5 7 30 1016 10 16.09344 0 0
11:55 pm 23:55 Clear 44 6.9 35 1.7 70 70 SSE 5 7 30 1016 10 16.09344 0 0

Powered by AerisWeather